[[{"header":{"parameterUnit":"m.s-1","parameterCategory":1,"la1":30.2991,"la2":30.254,"lo1":-89.0895,"lo2":-89.0444,"dy":0.0017,"dx":0.0017,"nx":28,"ny":28,"refTime":"2024-05-11T03:00:00:Z","depth":0,"parameterNumber":2,"parameterNumberName":"U-component_of_WINDS"},"data":[0,0,0,0,0,0,0,0,0,0,0,0,0,0,0,0,0,0,0,0,0,0,0,0,0,0,0,0,0,0,0,0,0,0,0,0,0,0,0,0,0,0,0,0,0,0,0,0,0,0,0,0,0,0,0,0,0,0,-3.9552,-3.9551,0,-3.9528,-3.9528,-3.9528,-3.9353,-3.9349,-3.9345,-3.9341,-3.9321,-3.9324,-3.9327,0,0,0,0,0,0,0,0,0,0,0,0,0,-3.9449,-3.9452,-3.9552,-3.9551,-3.9551,-3.9528,-3.9528,-3.9527,-3.9354,-3.9349,-3.9344,-3.9339,-3.932,-3.9324,-3.9328,0,0,0,0,0,0,0,0,0,0,0,0,0,-3.9466,-3.9453,-3.9552,-3.9462,-3.9453,-3.9528,-3.9528,-3.9527,-3.9355,-3.9349,-3.9342,-3.9336,-3.9318,-3.9323,-3.9328,-3.9489,0,0,-3.9344,-3.9346,0,0,0,0,0,0,0,0,-3.9466,-3.947,-3.9475,-3.9468,-3.9459,-3.9437,-3.9484,-3.9515,-3.9357,-3.9393,-3.9341,-3.9333,-3.9365,-3.9366,-3.9376,-3.9488,-3.9487,-3.9345,-3.9348,-3.935,-3.9352,0,0,0,0,0,0,0,-3.9465,-3.947,-3.9542,-3.9475,-3.9466,-3.9423,-3.9419,-3.9489,-3.9415,-3.9389,-3.9376,-3.9376,-3.9359,-3.9371,-3.9374,-3.9487,-3.9345,-3.9349,-3.9352,-3.9354,-3.9728,-3.9734,0,0,0,0,0,0,-3.9476,-3.9471,-3.9543,-3.9542,-3.9446,-3.943,-3.9425,-3.9451,-3.9414,-3.9402,-3.9381,-3.9368,-3.9365,-3.9368,-3.9373,-3.9556,-3.935,-3.9355,-3.9358,-3.9721,-3.9729,-3.9737,0,0,0,0,0,0,-3.9474,-3.9484,-3.9544,-3.9503,-3.9507,-3.9439,-3.9469,-3.9454,-3.9465,-3.9408,-3.9394,-3.9407,-3.936,-3.9365,-3.946,-3.9553,-3.9357,-3.9362,-3.9713,-3.9724,-3.9733,-3.9927,0,0,0,0,0,0,-3.9472,-3.9484,-3.9544,-3.9505,-3.951,-3.9633,-3.9475,-3.9458,-3.9474,-3.9456,-3.9428,-3.9418,-3.9356,-3.9454,-3.9466,-3.9557,-3.9366,-3.9704,-3.9718,-3.973,-3.9912,-3.9943,-3.9969,0,0,0,0,0,-3.9469,-3.9601,-3.9548,-3.9558,-3.9583,-3.9638,-3.9641,-3.9566,-3.9482,-3.9542,-3.9505,-3.9418,-3.9542,-3.9465,-3.9477,-3.9571,-3.9698,-3.9714,-3.9729,-3.9899,-3.9937,-3.9968,0,0,0,0,0,0,-3.9655,-3.9594,-3.9535,-3.9658,-3.9655,-3.9609,-3.9682,-3.9608,-3.9629,-3.9612,-3.9519,-3.9514,-3.9623,-3.9607,-3.9523,-3.9724,-3.9605,-3.9623,-3.973,-3.9765,-3.9793,-3.9795,-3.937,0,0,0,0,0,-3.971,-3.9758,-3.9703,-3.9818,-3.9819,-3.9751,-3.9772,-3.9714,-3.9707,-3.9705,-3.9675,-3.9673,-3.971,-3.9737,-3.9769,-3.9909,-3.99,-3.998,-4.0008,-4.0032,-4.0049,-4.012,-4.0155,-3.9787,-3.9787,-3.9787,0,0,-3.9825,-3.9798,-3.9834,-3.9854,-3.9844,-3.9897,-3.9751,-3.9814,-3.9852,-3.9715,-3.9802,-3.9781,-3.9771,-3.989,-3.994,-3.9879,-4.0148,-4.0051,-4.0071,-4.0075,-4.014,-4.0175,-4.0206,-3.9797,-3.9796,-3.9794,0,0,-4.006,-4.0046,-4.0138,-4.013,-4.0116,-4.007,-4.0093,-4.0058,-4.0037,-4.0123,-4.0021,-4.0066,-4.0133,-4.013,-4.0138,-4.0371,-4.0292,-4.0384,-4.0532,-4.0603,-4.0632,-4.0657,-4.0739,-4.077,-4.0401,-4.0402,-4.0402,0,-4.0205,-4.0279,-4.0195,-4.0263,-4.0275,-4.0152,-4.0245,-4.0242,-4.0241,-4.0252,-4.0183,-4.0263,-4.0249,-4.0364,-4.042,-4.0431,-4.0454,-4.0386,-4.0635,-4.0659,-4.0681,-4.0758,-4.079,-4.0413,-4.0412,-4.041,-4.0409,0,-4.0458,-4.0511,-4.0587,-4.0586,-4.0606,-4.0687,-4.0615,-4.0646,-4.0587,-4.0548,-4.0637,-4.0615,-4.0639,-4.0662,-4.0606,-4.0769,-4.0731,-4.0651,-4.0529,-4.0729,-4.08,-4.0829,-4.0429,-4.0425,-4.0422,-4.0419,0,0,-4.0811,-4.076,-4.079,-4.0786,-4.0761,-4.0801,-4.0877,-4.0898,-4.0926,-4.0929,-4.0989,-4.1048,-4.0972,-4.0981,-4.0923,-4.0986,-4.117,-4.0896,-4.0894,-4.0947,-4.1348,-4.1408,-4.1444,-4.1118,-4.1123,-4.1127,-4.1348,0,-4.1036,-4.1159,-4.1084,-4.1219,-4.1267,-4.115,-4.1215,-4.1207,-4.1173,-4.1209,-4.1172,-4.1214,-4.1112,-4.1116,-4.1173,-4.1136,-4.1249,-4.1119,-4.1173,-4.1176,-4.1178,-4.1481,-4.1545,-4.1754,-4.1375,-4.138,-4.1383,0,-4.1315,-4.1327,-4.1467,-4.143,-4.1447,-4.1507,-4.152,-4.1556,-4.1545,-4.1515,-4.1524,-4.1451,-4.1522,-4.1403,-4.1499,-4.1412,-4.143,-4.1416,-4.1422,-4.1423,-4.1291,-4.149,-4.1819,-4.1851,-4.1426,-4.1423,-4.142,0,-4.1557,-4.1609,-4.1697,-4.1699,-4.1659,-4.1704,-4.169,-4.1672,-4.1689,-4.1701,-4.1711,-4.1733,-4.1745,-4.1763,-4.1697,-4.1617,-4.1803,-4.1678,-4.1781,-4.1783,-4.1824,-4.1823,-4.2161,-4.1839,-4.1838,-4.1838,-4.1837,0,-4.1815,-4.1905,-4.1805,-4.186,-4.1957,-4.187,-4.1969,-4.1942,-4.1927,-4.1975,-4.1877,-4.1924,-4.1835,-4.1874,-4.1823,-4.191,-4.1917,-4.1895,-4.188,-4.1903,-4.1906,-4.1913,-4.1896,-4.1846,-4.1844,-4.1842,-4.1841,0,-4.2102,-4.2038,-4.2127,-4.2082,-4.2072,-4.2146,-4.2107,-4.2156,-4.2114,-4.2177,-4.2186,-4.2122,-4.2163,-4.2098,-4.2133,-4.2098,-4.2219,-4.2182,-4.2222,-4.2211,-4.2316,-4.2307,-4.267,-4.2713,-4.2365,-4.2368,-4.2371,0,-4.227,-4.2336,-4.2296,-4.232,-4.2311,-4.2352,-4.2368,-4.2286,-4.2307,-4.2298,-4.2349,-4.238,-4.2401,-4.2471,-4.2429,-4.2454,-4.2416,-4.2542,-4.242,-4.244,-4.2417,-4.2413,-4.2419,-4.2567,-4.2571,-4.2575,-4.2577,0,-4.2576,-4.2541,-4.2567,-4.2583,-4.2604,-4.2613,-4.2615,-4.2641,-4.2554,-4.2584,-4.2622,-4.2638,-4.2671,-4.2704,-4.2718,-4.2704,-4.2627,-4.2616,-4.2641,-4.2665,-4.2684,-4.2674,-4.2289,-4.2608,-4.2605,-4.2603,-4.2601,-4.26,-4.2807,-4.2859,-4.2838,-4.2871,-4.2863,-4.2867,-4.291,-4.2873,-4.2903,-4.2922,-4.2872,-4.2923,-4.2909,-4.2919,-4.2914,-4.2953,-4.2898,-4.2935,-4.2943,-4.2953,-4.2969,-4.2679,-4.2956,-4.2955,-4.2954,-4.2953,-4.2953,0,-4.3106,-4.3086,-4.3117,-4.3121,-4.3147,-4.307,-4.3068,-4.3095,-4.314,-4.3132,-4.3154,-4.3198,-4.3229,-4.3189,-4.3212,-4.3251,-4.3216,-4.326,-4.3256,-4.3254,-4.3018,-4.2993,-4.3288,-4.3288,-4.3288,-4.3288,-4.3288,-4.3288,-4.3265,-4.3348,-4.331,-4.3388,-4.3368,-4.3415,-4.342,-4.3423,-4.3416,-4.347,-4.3494,-4.3466,-4.3446,-4.3467,-4.3492,-4.3479,-4.3492,-4.3548,-4.3524,-4.3304,-4.3271,-4.3239,-4.3216,-4.3552,-4.3553,-4.3756,-4.3758,-4.3759]},{"header":{"parameterUnit":"m.s-1","parameterCategory":1,"la1":30.2991,"la2":30.254,"lo1":-89.0895,"lo2":-89.0444,"dy":0.0017,"dx":0.0017,"nx":28,"ny":28,"refTime":"2024-05-11T03:00:00:Z","depth":0,"parameterNumber":3,"parameterNumberName":"V-component_of_WINDS"},"data":[0,0,0,0,0,0,0,0,0,0,0,0,0,0,0,0,0,0,0,0,0,0,0,0,0,0,0,0,0,0,0,0,0,0,0,0,0,0,0,0,0,0,0,0,0,0,0,0,0,0,0,0,0,0,0,0,0,0,-1.9207,-1.9208,0,-1.9281,-1.9282,-1.9283,-1.929,-1.9289,-1.9288,-1.9287,-1.9365,-1.9367,-1.937,0,0,0,0,0,0,0,0,0,0,0,0,0,-1.9069,-1.9071,-1.9207,-1.9208,-1.9209,-1.9281,-1.9282,-1.9283,-1.929,-1.9289,-1.9288,-1.9287,-1.9364,-1.9367,-1.937,0,0,0,0,0,0,0,0,0,0,0,0,0,-1.9135,-1.9072,-1.9206,-1.9221,-1.9223,-1.9281,-1.9282,-1.9284,-1.929,-1.9289,-1.9288,-1.9287,-1.9363,-1.9367,-1.9371,-1.9421,0,0,-1.9384,-1.9385,0,0,0,0,0,0,0,0,-1.9131,-1.914,-1.9218,-1.922,-1.9222,-1.9275,-1.9262,-1.933,-1.929,-1.9265,-1.9287,-1.9286,-1.9336,-1.9342,-1.9359,-1.9424,-1.9428,-1.9384,-1.9387,-1.9388,-1.939,0,0,0,0,0,0,0,-1.9126,-1.9136,-1.9236,-1.9219,-1.9221,-1.9223,-1.9231,-1.9275,-1.9306,-1.9267,-1.9267,-1.9276,-1.9337,-1.9355,-1.9361,-1.9429,-1.9384,-1.9388,-1.939,-1.9392,-1.9537,-1.9538,0,0,0,0,0,0,-1.9119,-1.9133,-1.9234,-1.9239,-1.9173,-1.9226,-1.9235,-1.9259,-1.9306,-1.9311,-1.9277,-1.9276,-1.9348,-1.9356,-1.9363,-1.9424,-1.9388,-1.9392,-1.9395,-1.9536,-1.9537,-1.9539,0,0,0,0,0,0,-1.9116,-1.9128,-1.9231,-1.9186,-1.9199,-1.923,-1.9257,-1.9261,-1.9279,-1.9313,-1.9319,-1.929,-1.9348,-1.9358,-1.9406,-1.9427,-1.9394,-1.9398,-1.9534,-1.9536,-1.9538,-1.9545,0,0,0,0,0,0,-1.9112,-1.9127,-1.9146,-1.9186,-1.9201,-1.9272,-1.9258,-1.9264,-1.9286,-1.9286,-1.9327,-1.9332,-1.9347,-1.94,-1.941,-1.9432,-1.9401,-1.9532,-1.9535,-1.9537,-1.9543,-1.9547,-1.9551,0,0,0,0,0,-1.9107,-1.9146,-1.9147,-1.916,-1.9226,-1.9274,-1.9282,-1.9299,-1.9288,-1.9308,-1.9329,-1.9331,-1.9423,-1.9405,-1.9416,-1.944,-1.9531,-1.9534,-1.9537,-1.9542,-1.9547,-1.9551,0,0,0,0,0,0,-1.9109,-1.9152,-1.9154,-1.9207,-1.9236,-1.9275,-1.93,-1.9304,-1.9337,-1.9335,-1.9354,-1.9363,-1.9411,-1.943,-1.9409,-1.9489,-1.9476,-1.9481,-1.9475,-1.948,-1.9484,-1.9478,-1.9405,0,0,0,0,0,-1.9115,-1.915,-1.9185,-1.9229,-1.9243,-1.9269,-1.929,-1.93,-1.9332,-1.9345,-1.937,-1.94,-1.9436,-1.9459,-1.9494,-1.9546,-1.9555,-1.9568,-1.9571,-1.9574,-1.9579,-1.9607,-1.9612,-1.9549,-1.9549,-1.9549,0,0,-1.9129,-1.9157,-1.9178,-1.923,-1.9254,-1.9289,-1.928,-1.9318,-1.9344,-1.935,-1.9397,-1.9417,-1.9452,-1.9502,-1.9526,-1.952,-1.9598,-1.9578,-1.958,-1.9583,-1.961,-1.9616,-1.9622,-1.9551,-1.955,-1.955,0,0,-1.9172,-1.9197,-1.9235,-1.9259,-1.9295,-1.9312,-1.9321,-1.9358,-1.9371,-1.9418,-1.9424,-1.9455,-1.9516,-1.9541,-1.9561,-1.9611,-1.9614,-1.9622,-1.9641,-1.9668,-1.9673,-1.9678,-1.9695,-1.9701,-1.9627,-1.9627,-1.9627,0,-1.9184,-1.9238,-1.9254,-1.9291,-1.9313,-1.932,-1.9358,-1.9381,-1.9427,-1.9442,-1.9435,-1.9511,-1.9535,-1.959,-1.9602,-1.9619,-1.963,-1.9618,-1.9671,-1.9676,-1.968,-1.9697,-1.9703,-1.9627,-1.9627,-1.9627,-1.9627,0,-1.9251,-1.9287,-1.9314,-1.9357,-1.9382,-1.942,-1.9441,-1.9465,-1.9472,-1.9489,-1.9536,-1.9566,-1.9606,-1.962,-1.9628,-1.9676,-1.9671,-1.9667,-1.9654,-1.9687,-1.9702,-1.9709,-1.9628,-1.9628,-1.9628,-1.9628,0,0,-1.9298,-1.9348,-1.9358,-1.9377,-1.9416,-1.9445,-1.9482,-1.9521,-1.954,-1.9572,-1.9603,-1.9654,-1.965,-1.9673,-1.9684,-1.9707,-1.9744,-1.9701,-1.9702,-1.9707,-1.9797,-1.98,-1.9807,-1.9746,-1.9747,-1.9748,-1.9794,0,-1.9345,-1.9411,-1.9426,-1.9483,-1.9516,-1.9522,-1.9555,-1.9583,-1.9599,-1.963,-1.9648,-1.9683,-1.9676,-1.969,-1.9714,-1.9734,-1.9762,-1.9731,-1.9774,-1.9776,-1.9765,-1.9815,-1.9818,-1.986,-1.98,-1.9802,-1.9802,0,-1.9409,-1.944,-1.95,-1.9534,-1.9548,-1.9577,-1.9613,-1.9642,-1.9673,-1.9684,-1.9709,-1.9717,-1.9755,-1.974,-1.9792,-1.9771,-1.979,-1.9802,-1.9804,-1.9809,-1.9791,-1.982,-1.9874,-1.988,-1.9812,-1.9812,-1.9811,0,-1.9435,-1.9493,-1.9536,-1.9552,-1.9593,-1.9613,-1.9631,-1.9661,-1.9683,-1.9714,-1.9728,-1.9763,-1.9783,-1.981,-1.9827,-1.9814,-1.9878,-1.9864,-1.9887,-1.9887,-1.99,-1.9899,-1.9957,-1.9913,-1.9913,-1.9913,-1.9913,0,-1.9486,-1.9522,-1.9548,-1.9575,-1.9615,-1.9632,-1.9671,-1.9689,-1.9715,-1.9745,-1.9753,-1.9781,-1.9801,-1.9832,-1.9845,-1.9886,-1.9895,-1.9904,-1.9907,-1.9903,-1.9902,-1.9916,-1.9913,-1.9915,-1.9914,-1.9914,-1.9914,0,-1.9523,-1.9542,-1.9589,-1.9624,-1.9633,-1.9661,-1.969,-1.9716,-1.9732,-1.9769,-1.9779,-1.9805,-1.9841,-1.986,-1.9906,-1.9915,-1.996,-1.9962,-1.995,-1.9951,-1.9972,-1.997,-2.0041,-2.0051,-2.0,-2.0001,-2.0001,0,-1.9554,-1.9582,-1.9619,-1.9639,-1.9657,-1.9689,-1.9711,-1.9728,-1.975,-1.9787,-1.9808,-1.9844,-1.9874,-1.9931,-1.9954,-1.9988,-1.999,-2.0013,-1.9996,-1.999,-1.999,-1.9988,-1.999,-2.0016,-2.0016,-2.0017,-2.0017,0,-1.9606,-1.9614,-1.9645,-1.9679,-1.9704,-1.9732,-1.9759,-1.9775,-1.9796,-1.9821,-1.9857,-1.988,-1.9926,-1.9962,-1.9997,-2.0016,-2.002,-2.0022,-2.0029,-2.0025,-2.0016,-2.002,-1.9957,-2.002,-2.002,-2.002,-2.002,-2.0019,-1.9641,-1.9665,-1.9695,-1.9728,-1.975,-1.9775,-1.98,-1.9819,-1.985,-1.9888,-1.9896,-1.9934,-1.9963,-2.0011,-2.003,-2.0061,-2.0056,-2.0066,-2.0069,-2.0071,-2.0072,-2.0012,-2.0067,-2.0067,-2.0067,-2.0067,-2.0067,0,-1.9693,-1.9712,-1.9742,-1.978,-1.9806,-1.9806,-1.9836,-1.9858,-1.9892,-1.9918,-1.9947,-1.9988,-2.0022,-2.0047,-2.0082,-2.0101,-2.0103,-2.0109,-2.0108,-2.0112,-2.0074,-2.0064,-2.0107,-2.0107,-2.0107,-2.0107,-2.0107,-2.0107,-1.9723,-1.9764,-1.9775,-1.9826,-1.9845,-1.9882,-1.9898,-1.9921,-1.9942,-1.9987,-2.0016,-2.0031,-2.0057,-2.0093,-2.0124,-2.0131,-2.0143,-2.0148,-2.0155,-2.0119,-2.0115,-2.0111,-2.0101,-2.0151,-2.0151,-2.019,-2.0191,-2.0191]}]]